FW6353 Weather Reports


time (UTC)temp
C
wind
direction
speed
KPH
gust
KPH
rain 1hr
cm
rain 24hr
cm
rain mn
cm
humidity
%
barometer
mb
20260507221515 16 222 6.4 8.0 0.00 0.51 0.51 57 1042.2
20260507220515 15 226 6.4 8.0 0.00 0.51 0.51 58 1043.0
20260507215534 15 230 6.4 6.4 0.00 0.51 0.51 58 1043.7
20260507214515 15 233 6.4 6.4 0.00 0.51 0.51 59 1044.4
20260507213534 14 237 4.8 6.4 0.00 0.51 0.51 60 1045.1
20260507212515 13 241 4.8 6.4 0.00 0.51 0.51 60 1045.8
20260507211515 13 245 4.8 6.4 0.00 0.51 0.51 61 1046.5
20260507210515 12 248 4.8 6.4 0.00 0.51 0.51 61 1047.2
20260507205515 12 252 4.8 6.4 0.00 0.51 0.51 62 1047.9
20260507204535 12 255 4.8 6.4 0.00 0.51 0.51 63 1048.6
20260507203515 11 259 4.8 4.8 0.00 0.51 0.51 63 1049.2
20260507202535 11 263 4.8 4.8 0.00 0.51 0.51 64 1049.9
20260507201636 10 266 4.8 4.8 0.00 0.51 0.51 64 1050.6
20260507200515 10 269 4.8 4.8 0.00 0.51 0.51 65 1051.2
20260507195515 9 273 3.2 4.8 0.00 0.51 0.51 65 1051.9
20260507194515 8 276 3.2 4.8 0.00 0.51 0.51 66 1052.5
20260507193515 8 279 3.2 4.8 0.00 0.51 0.51 67 1053.1
20260507192515 8 283 3.2 4.8 0.00 0.51 0.51 67 1053.8
20260507191515 7 286 3.2 3.2 0.00 0.51 0.51 68 1054.4
20260507190554 7 289 3.2 3.2 0.00 0.51 0.51 68 1055.0
20260507185515 6 292 3.2 3.2 0.00 0.51 0.51 69 1055.6
20260507184515 6 295 3.2 3.2 0.00 0.51 0.51 69 1056.1
20260507183515 5 298 3.2 3.2 0.00 0.51 0.51 70 1056.7
20260507182554 5 301 3.2 3.2 0.00 0.51 0.51 70 1057.3
20260507181534 5 304 3.2 3.2 0.00 0.51 0.51 71 1057.8
20260507180515 4 307 1.6 3.2 0.00 0.51 0.51 71 1058.3
20260507175515 3 310 1.6 3.2 0.00 0.51 0.51 72 1058.9
20260507174515 3 312 1.6 3.2 0.00 0.51 0.51 72 1059.4
20260507173514 3 315 1.6 3.2 0.00 0.51 0.51 72 1059.9
20260507172515 2 317 1.6 1.6 0.00 0.51 0.51 73 1060.4
20260507171534 2 320 1.6 1.6 0.00 0.51 0.51 73 1060.9
20260507170515 2 322 1.6 1.6 0.00 0.51 0.51 74 1061.3
20260507165515 1 325 1.6 1.6 0.00 0.51 0.51 74 1061.8
20260507164515 1 327 1.6 1.6 0.00 0.51 0.51 75 1062.2
20260507163515 1 329 1.6 1.6 0.00 0.51 0.51 75 1062.6
20260507162534 1 331 1.6 1.6 0.00 0.51 0.51 75 1063.0
20260507161515 0 334 1.6 1.6 0.00 0.51 0.51 76 1063.4
20260507160534 0 336 1.6 1.6 0.00 0.51 0.51 76 1063.8
20260507155534 0 337 1.6 1.6 0.00 0.51 0.51 76 1064.2
20260507154515 0 339 1.6 1.6 0.00 0.51 0.51 77 1064.5
20260507153534 0 341 1.6 1.6 0.00 0.51 0.51 77 1064.9
20260507152534 0 343 0.0 1.6 0.00 0.51 0.51 77 1065.2
20260507151515 0 344 0.0 1.6 0.00 0.51 0.51 77 1065.5
20260507150515 0 346 0.0 0.0 0.00 0.51 0.51 78 1065.8
20260507145515 0 348 0.0 0.0 0.00 0.51 0.51 78 1066.1
20260507144515 -1 349 0.0 0.0 0.00 0.51 0.51 78 1066.4
20260507143515 -1 350 0.0 0.0 0.00 0.51 0.51 78 1066.6
20260507142515 -1 351 0.0 0.0 0.00 0.51 0.51 79 1066.8
20260507141515 -1 353 0.0 0.0 0.00 0.51 0.51 79 1067.1
20260507140554 -1 354 0.0 0.0 0.00 0.51 0.51 79 1067.3
20260507135515 -1 355 0.0 0.0 0.00 0.51 0.51 79 1067.5
20260507134515 -1 356 0.0 0.0 0.00 0.51 0.51 79 1067.6
20260507133534 -1 356 0.0 0.0 0.00 0.51 0.51 79 1067.8
20260507132613 -1 357 0.0 0.0 0.00 0.51 0.51 80 1067.9
20260507131515 -1 358 0.0 0.0 0.00 0.51 0.51 80 1068.1
20260507130515 0 358 0.0 0.0 0.00 0.51 0.51 80 1068.2
20260507125515 0 359 0.0 0.0 0.00 0.51 0.51 80 1068.3
20260507124515 0 359 0.0 0.0 0.00 0.51 0.51 80 1068.3
20260507123515 0 360 0.0 0.0 0.00 0.51 0.51 80 1068.4
20260507122535 0 360 0.0 0.0 0.00 0.51 0.51 80 1068.4
20260507121515 0 360 0.0 0.0 0.00 0.51 0.51 80 1068.5
20260507120515 0 360 0.0 0.0 0.00 0.51 0.51 80 1068.5
20260507115036 0 359 0.0 0.0 0.00 0.51 0.51 80 1068.4
20260507114016 0 360 0.0 0.0 0.00 0.51 0.51 80 1068.4
20260507113016 0 360 0.0 0.0 0.00 0.51 0.51 80 1068.4
20260507112016 0 360 0.0 0.0 0.00 0.51 0.51 80 1068.5
20260507111017 0 360 0.0 0.0 0.00 0.51 0.51 80 1068.5
20260507110515 17 289 3.2 3.2 0.00 0.51 0.51 68 1055.0
20260507105515 18 286 3.2 3.2 0.00 0.51 0.51 68 1054.4
20260507104554 18 283 3.2 4.8 0.00 0.51 0.51 67 1053.8
20260507103515 18 280 3.2 4.8 0.00 0.51 0.51 67 1053.2
20260507103053 18 276 3.2 4.8 0.00 0.51 0.51 66 1052.5
20260507020535 10 90 12.9 14.5 0.00 0.51 0.51 35 1017.0
20260507015534 9 86 12.9 14.5 0.00 0.51 0.51 34 1016.4
20260507014515 8 83 12.9 14.5 0.00 0.51 0.51 34 1015.7
20260507013515 8 80 12.9 14.5 0.00 0.51 0.51 33 1015.1
20260507012515 7 76 12.9 14.5 0.00 0.51 0.51 33 1014.5
20260507011515 7 73 12.9 16.1 0.00 0.51 0.51 32 1013.9
20260507010515 7 70 12.9 16.1 0.00 0.51 0.51 32 1013.3
20260507005515 6 67 12.9 16.1 0.00 0.51 0.51 31 1012.7
20260507004554 6 64 12.9 16.1 0.00 0.51 0.51 31 1012.1
20260507003515 5 61 12.9 16.1 0.00 0.51 0.51 30 1011.6
20260507002515 5 58 12.9 16.1 0.00 0.51 0.51 30 1011.0
20260507001515 5 55 12.9 16.1 0.00 0.51 0.51 29 1010.5
20260507000515 4 52 14.5 16.1 0.00 0.51 0.51 29 1009.9
20260506235515 3 50 14.5 16.1 0.00 0.51 0.51 28 1009.4
20260506234515 3 47 14.5 16.1 0.00 0.51 0.51 28 1008.9
20260506233532 3 44 14.5 17.7 0.00 0.51 0.51 27 1008.4
20260506232515 2 42 14.5 17.7 0.00 0.51 0.51 27 1007.9
20260506231515 2 39 14.5 17.7 0.00 0.51 0.51 27 1007.4
20260506230535 2 37 14.5 17.7 0.00 0.51 0.51 26 1007.0
20260506225554 1 35 14.5 17.7 0.00 0.51 0.51 26 1006.5
20260506224515 1 32 14.5 17.7 0.00 0.51 0.51 25 1006.1
20260506223515 1 30 14.5 17.7 0.00 0.51 0.51 25 1005.7
20260506222515 1 28 14.5 17.7 0.00 0.51 0.51 25 1005.3